Emporia, KS

11:22 AM CST on February 26, 2017 (GMT -0600)
Emporia Municipal

Weather History for KEMP - January, 2013

Change the Weather History Date:

Tuesday, January 15, 2013

  Actual Average Record
Temperature  
Mean Temperature 23 °F 31 °F  
Max Temperature 34 °F 41 °F 67 °F (2012)
Min Temperature 12 °F 21 °F 3 °F (2009)
Degree Days  
Heating Degree Days 42 34  
Month to date heating degree days 502 510  
Since 1 July heating degree days 2258 2443  
Cooling Degree Days 0 0  
Month to date cooling degree days 0 0  
Year to date cooling degree days 0 0  
Moisture  
Dew Point 10 °F    
Average Humidity 62    
Maximum Humidity 88    
Minimum Humidity 35    
Precipitation  
Precipitation 0.00 in 0.02 in 0.31 in (2017)
Month to date precipitation 0.29 0.18  
Year to date precipitation 0.29 0.18  
Sea Level Pressure  
Sea Level Pressure 30.33 in    
Wind  
Wind Speed 4 mph (SSE)    
Max Wind Speed 10 mph    
Max Gust Speed 12 mph    
Visibility 10 miles    
Events      
T = Trace of Precipitation, MM = Missing Value Source: NWS Daily Summary

Daily Weather History Graph

Daily Weather History Graph

Search for Another Location

Airport or City:

Trip Planner

Search our weather history database for the weather conditions in past years. The results will help you decide how hot, cold, wet, or windy it might be!

Date:

Astronomy

Jan. 15, 2013 Rise Set
Actual Time 7:40 AM CST 5:28 PM CST
Civil Twilight 7:11 AM CST 5:57 PM CST
Nautical Twilight 6:38 AM CST 6:30 PM CST
Astronomical Twilight 6:07 AM CST 7:01 PM CST
Moon 9:50 AM CST (1/15) 10:14 PM CST (1/15)
Length of Visible Light 10h 46m
Length of Day
9h 48m
Waxing Crescent, 19% of the Moon is Illuminated
Jan 15
Waxing Crescent
Jan 18
First Quarter
Jan 26
Full
Feb 3
Last Quarter
Feb 10
New

Hourly Weather History & Observations

Time (CST) Temp. Windchill Dew Point Humidity Pressure Visibility Wind Dir Wind Speed Gust Speed Precip Events Conditions
12:53 AM 17.1 °F 11.7 °F 10.0 °F 74% 30.41 in 10.0 mi North 3.5 mph - N/A   Mostly Cloudy
1:53 AM 15.1 °F 7.7 °F 10.0 °F 80% 30.40 in 10.0 mi SE 4.6 mph - N/A   Partly Cloudy
2:53 AM 14.0 °F - 9.0 °F 80% 30.38 in 10.0 mi Calm Calm - N/A   Clear
3:53 AM 14.0 °F - 10.0 °F 84% 30.38 in 10.0 mi Calm Calm - N/A   Scattered Clouds
5:53 AM 15.1 °F - 10.9 °F 84% 30.40 in 10.0 mi Calm Calm - N/A   Mostly Cloudy
6:53 AM 14.0 °F - 10.0 °F 84% 30.40 in 10.0 mi Calm Calm - N/A   Overcast
7:53 AM 14.0 °F 6.5 °F 10.0 °F 84% 30.39 in 10.0 mi NW 4.6 mph - N/A   Overcast
8:53 AM 16.0 °F - 12.0 °F 84% 30.39 in 10.0 mi Calm Calm - N/A   Clear
9:53 AM 23.0 °F - 12.9 °F 65% 30.40 in 10.0 mi Calm Calm - N/A   Clear
10:53 AM 26.1 °F 21.9 °F 10.9 °F 53% 30.39 in 10.0 mi Variable 3.5 mph - N/A   Clear
11:53 AM 28.9 °F 25.2 °F 10.0 °F 45% 30.35 in 10.0 mi NE 3.5 mph - N/A   Clear
12:53 PM 30.9 °F 24.3 °F 9.0 °F 40% 30.32 in 10.0 mi NE 6.9 mph - N/A   Clear
1:53 PM 32.0 °F 27.5 °F 10.0 °F 40% 30.29 in 10.0 mi Variable 4.6 mph - N/A   Clear
2:53 PM 33.1 °F 30.0 °F 9.0 °F 37% 30.28 in 10.0 mi Variable 3.5 mph - N/A   Clear
3:53 PM 34.0 °F 28.8 °F 9.0 °F 35% 30.29 in 10.0 mi North 5.8 mph - N/A   Clear
4:53 PM 32.0 °F - 9.0 °F 38% 30.28 in 10.0 mi Calm Calm - N/A   Clear
5:53 PM 28.0 °F 22.8 °F 9.0 °F 45% 30.28 in 10.0 mi SE 4.6 mph - N/A   Clear
6:53 PM 27.0 °F 21.6 °F 8.1 °F 45% 30.29 in 10.0 mi South 4.6 mph - N/A   Clear
7:53 PM 19.9 °F 11.1 °F 10.0 °F 65% 30.29 in 10.0 mi South 6.9 mph - N/A   Clear
8:53 PM 19.9 °F 11.1 °F 9.0 °F 62% 30.27 in 10.0 mi South 6.9 mph - N/A   Clear
9:53 PM 18.0 °F 7.7 °F 10.0 °F 71% 30.24 in 10.0 mi SSW 8.1 mph - N/A   Clear
10:53 PM 19.9 °F 10.1 °F 10.9 °F 68% 30.24 in 10.0 mi SW 8.1 mph - N/A   Clear
11:53 PM 21.0 °F 10.6 °F 10.9 °F 65% 30.23 in 10.0 mi SW 9.2 mph - N/A   Clear